Espace membre
Imprimable
Wissant, 09-10/09/2017, BEL - Trail de la Côte d'Opale
Liste des rapports > 14km - Classement
Recherche: Page: [1]
414 Entrées
 
Les réclamations ne sont plus acceptées, les résultats sont considérés comme définitifs.
RangNrLicenceNomAgeIOCEquipeTempsTkmMoy.ScrLocalité
1.9245FCORNEVAUX Elise32FRASGH ATHLÉTISME1:00:334:20 13.8730
2.8193FCHEVRIER Tess26FRA1:04:074:35 13.1055
3.8874FDELBECQ Cecile31FRA1:07:544:51 12.3791
4.8673FCHAUMET Astrid33FRADECATHLON1:07:584:52 12.3693
5.8021FDELEBARRE Laetitia22DECATHLON ST-MARTIN1:08:024:52 12.3595
6.9377FRIBET Manon22FRA1:09:044:56 12.16110
7.8366FPLAY Karine33FRAPHOENIX 431:09:064:57 12.16113
8.9417FOFFE Caroline25FRACOURIR À GRAVELINES1:09:284:58 12.09120
9.8953FDELBECQ Emilie35BELECLATÉS PÉRUWELZ1:09:565:00 12.01129
10.9643FGLANES Clémentine25FRA1:10:495:04 11.86144
11.9939FMULOCHOT Eléonore31FRA1:11:255:07 11.76152
12.9836FQUICK Aurore33FRAARTOIS ATHLETISME1:11:345:07 11.74154
13.8901FMOLINARD Mathilde34FRA1:14:035:18 11.35201
14.8358FHOYER Céline30FRAENAA1:14:095:18 11.33207
15.9344FBLAN Sandy38FRA1:14:145:19 11.32210
16.9612FCOLLELUORI Sylvie39ITA1:14:245:19 11.29211
17.8273FDÉGARDIN Joannie24FRA1:14:415:21 11.25218
18.8899FRUCKEBUSCH Clothilde33FRARUNNINGHEM1:15:005:22 11.20224
19.9282FBEAUVILLAIN Camille35FRARUNNINGHEM1:15:015:22 11.20225
20.9240FCORNEVAUX Pauline31FRA1:15:365:24 11.11237
21.9398FDRAMAIX Manon28BEL1:17:255:32 10.85261
22.8850FDEMARET Isabelle37BEL1:17:395:33 10.82266
23.8470FLE BOT Emilie32FRA1:17:455:34 10.81268
24.9223FCLAEYS Gaëlle21BEL1:18:195:36 10.73276
25.9215FCOUTURIER Karine37FRACOURIR À BAISIEUX1:20:185:45 10.46317
26.9087FVANTREPOTTE Emilie38FRAHERGNIES ATHLETIQUE CLUB1:20:305:45 10.44322
27.8657FALVES JORGE Sarah27FRA1:21:125:48 10.35338
28.8843FLAURENT Emilie38FRA1:21:565:52 10.25362
29.9007FDESMYTER Laurence35BELTORTUES MESLINOISES1:22:015:52 10.24368
30.8991FMOUCHEL Adeline35FRACHERBOURG TRIATHLON1:22:025:52 10.24369
31.8428FLAURENT Anne-Claire35FRA1:22:175:53 10.21374
32.9260FKOLODZIEJCZAK Céline29FRA1:22:195:53 10.21375
33.8064FBRION Lauren31FRA1:22:505:55 10.14385
34.9710FLEPOUTRE Agathe26FRA1:22:595:56 10.12389
35.8323FLEFEVRE Marion29FRA1:23:115:57 10.10391
36.8665FRAMBUR Alexandra30FRA1:23:295:58 10.06400
37.9804FPLURIEN Alix26FRA1:24:076:01 9.99407
38.9813FLOVENS Laetitia39BEL1:24:196:02 9.96409
39.9182FGOULOIS Hélène35FRA1:24:336:03 9.94415
40.9211FPIGERRE Audrey30FRA1:24:476:04 9.91419
41.8809FLEMAIRE Célina39FRA1:24:526:04 9.90420
42.9400FCARROUÉ Charlotte24FRAJOGGING CLUB LAPUGNOY1:25:216:06 9.84429
43.8733FBONVALLET Clara27FRA1:25:226:06 9.84430
44.9711FVANDENBEMPT Julie39FRA1:25:366:07 9.81435
45.8837FBOUTRY Sabrina35FRA1:25:576:09 9.78446
46.9147FDUPUIS Anne Laure39FRA1:26:056:09 9.76451
47.8173FLIAGRE Marguerite28FRAACC LA CHAPELLE D'ARMENTI1:26:556:13 9.67466
48.9649FCLIPET Michael39FRA1:26:556:13 9.66468
49.9624FZANNIER Beata38FRASOUCHEZ TEAM1:27:146:14 9.63473
50.9927FHAU Violaine32FRACOURIR À BAISIEUX1:27:326:16 9.60484
51.10096FBOUSSEMART Maite33FRA1:27:336:16 9.60485
52.9491FMAHE Pauline37FRALES SAINGHINOIS1:27:456:17 9.57493
53.8299FKONE Salimata39BELCALESTIENNE1:27:506:17 9.57496
54.9585FDETRIVIERE Yseult38FRA1:28:056:18 9.54499
55.8748FHYEST Charlotte29FRA1:28:136:19 9.52503
56.8363FANTROPE Marie37FRA1:28:166:19 9.52504
57.9378FCHEMSI Ludivine36FRA1:28:216:19 9.51505
58.9290FDORMANS Hélène21BELLES MOTIVÉS DU MARDI1:28:266:19 9.50507
59.9979FBERNARD Stéphanie33FRA1:29:176:23 9.41524
60.8972FLOFFET Ludivine27BELJOG'IN ATTITUDE1:29:576:26 9.34537
61.8034FLEVEILLE NIZEROLLE Valentine27FRAEUROTUNNEL1:29:576:26 9.34538
62.9501FMARTIN Julie27FRATACTAC1:30:166:27 9.31546
63.9730FLECLERC Julie38FRA1:30:426:29 9.26552
64.9508FFOURQUET Tiphaine33FRA1:30:496:30 9.25555
65.8831FPARENT Magali34FRA1:30:536:30 9.24557
66.8360FVISEUX Dorothee36FRA1:31:056:31 9.22560
67.8741FDUTOIT Constance25FRA1:31:106:31 9.21562
68.9943FDE KOCK Charlotte39BELVERTIGO1:31:136:31 9.21563
69.9424FDAVID Hélène35BEL1:31:246:32 9.19567
70.9372FCAUCHETEUX Emmanuelle30BELRUSTA1:31:256:32 9.19569
71.8983FDUBUS Valérie34FRAJCL1:31:266:32 9.19570
72.8763FLEFEBVRE Noémie28FRA1:31:266:32 9.19571
73.9667FVASSEUR Aurélie37FRACAC CALOTERIE1:31:366:33 9.17575
74.9831FMESSAAOUI Nadia36BEL1:31:436:34 9.16577
75.8623FDEVAUX Claire31FRA1:31:586:35 9.13581
76.9778FSIEUW Katrien34BEL1:32:026:35 9.13582
77.9822FLAKOUISS Sonia31FRA1:32:106:35 9.11585
78.9654FBOIDIN Margaux24FRA1:32:226:36 9.09586
79.8373FDEMAREST Laurence34FRATEAM TRAIL OPALE (TTO)1:32:276:37 9.09590
80.9061FHAIDON Soline25BEL1:32:276:37 9.09591
81.9036FARNOULD Caroline30FRAFOULÉES SAINGHINOISES1:32:456:38 9.06594
82.9238FPAGE Estelle37FRA1:32:586:39 9.04595
83.8179FLEVISSE Mélanie34FRA1:33:076:40 9.02597
84.8776FJEAN Virginie36BEL1:33:196:40 9.00599
85.8345FOSTYN Pauline28FRA1:33:236:41 9.00602
86.8200FGHELEYNS Odile36BEL1:33:256:41 8.99605
87.9834FDEGAND Stéphanie36FRA1:33:366:42 8.98612
88.9483FDUFOUR Sophie34FRARONCHIN ATHLETIC CLUB1:33:556:43 8.94620
89.8214FVAN DEN BOSSCHE Mathilde38FRA1:34:086:44 8.92625
90.8289FJACQUES Sophie29BEL1:34:196:45 8.91634
91.8314FDE WEVER Mélanie37FRA1:34:236:45 8.90637
92.9960FGENEAU Sibille39FRA1:34:336:46 8.88640
93.8629FDE FIGUERREDO Julie25FRA1:34:346:46 8.88642
94.9784FFARGUES Helene31FRA1:34:406:46 8.87646
95.8475FPERRIN Lise29FRA1:34:536:47 8.85652
96.9690FCALYPSO Hiard25FRA1:35:026:48 8.84656
97.9603FDUPRE Elodie27FRA1:35:246:49 8.81669
98.8067FCALCOEN Caroline39FRA1:35:296:50 8.80673
99.8637FFORTRY Marie35FRA1:35:356:50 8.79676
100.8415FDECOIN Marie35FRA1:35:356:50 8.79677
101.9361FVENTURA Celine38FRAVERTIGO1:35:436:51 8.78679
102.8923FDUBAR Julie39BEL1:35:586:52 8.75683
103.9496FDESSENNE Celine36FRA1:36:156:53 8.73688
104.8892FCROMBE GRARE Anaïse33FRATEAM DOUZALEUR1:36:276:54 8.71690
105.8085FVIELLE Laura24FRARCA CANICROSS1:36:326:54 8.70694
106.8934FARNALSTEEN Virginie39FRA1:37:076:57 8.65705
107.9555FVANRUMBEKE Patricia38FRA1:37:076:57 8.65707
108.8875FBRABANT Olivia33FRA1:37:086:57 8.65709
109.9918FDUPONT DE DINECHIN Sophie38FRA1:37:226:58 8.63719
110.9421FDESORMEAUX Angelique35FRA1:37:256:58 8.62721
111.9769FBLIECK Dorothee38FRA1:37:336:59 8.61724
112.8780FBODIN Amandine33FRA1:37:396:59 8.60726
113.8727FAMANT Orane26BEL/1:37:416:59 8.60728
114.9309FTHIERY Amandine37FRA1:37:587:00 8.58734
115.9262FVASSEUR Audrey29FRAX-TERRILS1:38:117:01 8.56739
116.8977FPARDOUE Coralie26FRA1:38:237:02 8.54742
117.9301FDELECOEUILLERIE Céline37BEL1:38:287:02 8.53744
118.9130FLECERF Sarah35BELLES POTES Ô MALTÉS1:38:327:03 8.53746
119.8241FALLAERT Coraline32FRAPOTES Ô MALTÉS1:38:327:03 8.53747
120.8429FGHISTELINCK Aude39BEL1:38:337:03 8.52748
121.8454FDELILLE Claire33FRA1:39:047:05 8.48760
122.8028FBUCHMANN Mélanie30FRA1:39:087:05 8.47761
123.9627FROGIER Severine33FRA1:39:107:05 8.47765
124.9074FDUPRET Charlotte37BELECLATÉS PÉRUWELZ1:39:117:06 8.47766
125.8765FLE FRANCOIS Aurelie31FRA1:39:187:06 8.46768
126.9155FDELAVEAU François37FRA1:39:207:06 8.46771
127.9412FHENNEBIQUE Manuelle39FRA1:39:477:08 8.42781
128.9269FDEPERNE Jeanne19FRA1:39:567:09 8.41786
129.8372FDEVILDER Sidonie34FRA1:39:577:09 8.40788
130.9697FTOULLERON Camille32FRA1:40:047:09 8.39790
131.9687FBOIS Helene35FRA1:40:047:09 8.39791
132.9255FFLIPPO Elise33FRAUNIRUN1:40:147:10 8.38794
133.8307FVERSCHUEREN Marie37FRA1:40:417:12 8.34802
134.9922FFILLY Benedicte38FRA1:40:477:12 8.34808
135.8890FDESEINE Elodie23FRAPACCAP FOURNES EN WEPPES1:40:517:13 8.33811
136.8221FBECART Elsa27FRAAAAVA1:41:017:13 8.32814
137.9668FPAGET Tiffany30FRA1:41:037:14 8.31815
138.9670FBULTEAU Coline30FRA1:41:037:14 8.31816
139.8233FPEAN Laurane27FRA1:41:107:14 8.30818
140.9267FTHIROUX Steffi29BELMESNIL1:41:137:14 8.30820
141.8393FPIETTE Amandine26BEL1:41:147:14 8.30821
142.9179FDECOCK Stéphanie38BEL1:41:157:14 8.30824
143.8266FPAUWELS Audrey39FRAASSOCIATION AIDONS AGATHE1:41:197:15 8.29826
144.9149FVANDEWALLE Maxence27BELLES GAULOIS1:41:197:15 8.29827
145.9277FPELZER Amelie34FRA1:41:397:16 8.26831
146.9458FLEFÈVRE Emilie36FRA1:41:407:16 8.26832
147.9272FFROMENT Sandrine38FRA1:41:427:16 8.26833
148.8260FBOURGAU Sarah37FRA1:41:527:17 8.25835
149.9370FVEROVE Emilie37FRA1:42:037:18 8.23840
150.9818FALLARD Amélie20FRA1:42:167:19 8.21845
151.9000FSCHROYEN Sandra39BEL1:42:307:20 8.20848
152.8992FLUBIN Pauline36FRA1:42:347:20 8.19852
153.9957FCLABAUT Virginie34FRA1:42:367:20 8.19854
154.8381FWILLET Anne37BELRDV RUN1:42:577:22 8.16861
155.8237FLEVIEZ Perrine39FRA1:43:017:22 8.15862
156.8093FPROTIN Emilie30FRA1:43:207:23 8.13868
157.8459FCOURTECUISSE Anne Catherine38FRA1:43:287:24 8.12870
158.9848FCAZÉ Sophie37FRA1:43:287:24 8.12871
159.9268FTAZIAUX Geneviève32BELMESNIL1:43:317:24 8.11874
160.8720FMAES Aurore35BELSPORT EVASION1:43:347:24 8.11877
161.8700FLEVRAT Claire24FRA1:43:437:25 8.10878
162.8726FOJEDA Karla30MEX1:43:457:25 8.10880
163.9144FVIGNERON Emilie35FRA1:43:497:25 8.09883
164.6724FPOTEZ Véronique37FRA1:43:517:26 8.09886
165.9563FNAILLON Emilie33FRACOURIR À ABBEVILLE1:44:097:27 8.07895
166.8684FMATYCZY Emilie37FRA1:44:127:27 8.06898
167.8465FSENECHAL Mytyl30FRA1:44:147:27 8.06899
168.9401FCONSTANTIN Crystele32FRA1:44:297:28 8.04907
169.9016FLABIS Aurore38FRAUSL JOGGING1:44:337:29 8.04909
170.9613FBILLY Stéphanie34BELLES APÉROS DU MARDI1:44:517:30 8.01914
171.9035FBOUCHAT Alexandra34BELTORTUES MESLINOISES1:44:557:30 8.01918
172.9176FLAVAL Maud30FRA1:45:017:31 8.00921
173.9843FBART Caroline27FRAGROUPE EMPLIO1:45:087:31 7.99926
174.8845FVAILLANT Elise37FRAQUESNOY POUR TOUS LES TEM1:45:197:32 7.98932
175.9820FILIUTA Ioana Alexandra29ROU1:45:207:32 7.98934
176.9172FFRÈRE Emmanuelle25FRA1:45:267:32 7.97936
177.9826FGARZITTO Marie30FRA1:45:277:32 7.97937
178.8686FDELBORT Virginie35FRA1:45:387:33 7.95941
179.8371FMOLINA CASTRO Ana Maria27COL1:45:417:33 7.95942
180.8703FDELRUE Angelique35FRA1:45:437:34 7.95944
181.8693FLOOS Claire29FRAAS LFB1:45:547:34 7.93949
182.9771FDEJANCOURT Amandine34FRAVYTAJOG1:46:037:35 7.92951
183.9614FROUDAUT Aude38BELMOUSTROLLNOIS1:46:057:35 7.92952
184.8754FMINNAERT Laurence38BELMOUSTROLLNOIS1:46:057:35 7.92953
185.9558FMEREL Helene34FRA1:46:237:36 7.90955
186.8436FBODIN Leslie39FRA1:46:337:37 7.88961
187.8862FCOTEIGNIE Camille30FRA1:46:347:37 7.88962
188.8645FHEYMAN Claire30FRA1:46:347:37 7.88963
189.8857FSANT Philippine31FRA1:46:347:37 7.88964
190.8473FWAROQUIER Marie35FRA1:46:357:37 7.88965
191.8303FDURAND Claire38FRA1:46:357:37 7.88969
192.9173FLEPERS Marie27FRA1:46:387:37 7.88972
193.8794FRIGOBERT Marie-Christine33FRA1:46:417:38 7.87974
194.8643FVAN MENGSEL Magalie34FRAWE ARE JOG IN REIMS1:46:517:38 7.86979
195.8227FBAILLET Audrey37FRA1:46:547:39 7.86982
196.8885FAZALBERT Charlotte27FRA1:47:127:40 7.84990
197.9067FDUBOIS Charlotte30FRA1:47:327:41 7.81996
198.9076FBLONDEEL Nathalie38FRA1:47:337:41 7.81998
199.8290FBERNARD Jane39FRA1:47:447:42 7.801000
200.8385FVECRUYSSE Sonia39FRAWASQUEHAL TRIATHLON1:47:517:43 7.791002
201.9022FMOUKAGNI PELZER Marie38FRA1:47:527:43 7.791004
202.6186FFOURRIER Marion34FRA1:47:577:43 7.781007
203.9062FGRELLIER Virginie37FRA1:48:007:43 7.781008
204.9423FCASIER Mélanie35BEL1:48:017:43 7.781009
205.9817FMOTTE Alix22FRA1:48:177:45 7.761016
206.9974FCOUSIN Aurélie32FRA1:48:197:45 7.761017
207.8309FFONTAINE Laeticia38FRA1:48:197:45 7.761018
208.9089FDUBUISSON Laure33BELXTRATIMERUNNING1:48:227:45 7.751020
209.9263FDELERIVE Julie20FRA1:48:227:45 7.751022
210.9181FBRAJA Anaïs31FRA1:48:247:45 7.751024
211.9381FSANNIER Anne39FRA1:48:337:46 7.741026
212.8985FWINDAL Gwenaelle36BEL1:48:377:46 7.731029
213.8838FDHOINE Ingrid35FRA1:48:397:46 7.731031
214.9438FDELATTRE Elodie30FRA1:48:447:46 7.731033
215.9252FWYPYCH Maité36FRA1:49:077:48 7.701039
216.9761FMESSIEN Sophie35BELRUNNING CLUB TEMPLEUVE1:49:087:48 7.701040
217.8397FBOSSART Camille32FRA1:49:107:48 7.691043
218.9997FTHUMERELLE Marion35FRA1:49:117:48 7.691047
219.8378FCOLSON Hélène30BEL1:49:127:48 7.691049
220.9952FPAPIERNIK Julie34BEL1:49:277:50 7.681053
221.8910FDE WEERDT Lieve38BELLEEUWERIK1:49:297:50 7.671055
222.8476FBAUDUIN Julie34FRA1:49:337:50 7.671060
223.8661FDIEULLE Delphine36FRA1:49:407:50 7.661064
224.9684FDIEULOT Adeline36FRA1:49:437:51 7.661065
225.9845FCOUPET CASTENETTO Cécile36FRA1:49:567:52 7.641067
226.8471FROUSSEAUX LAOUAR Najat39FRAASUD1:50:197:53 7.611071
227.10097FGARDIN Mathilde19FRA1:50:507:55 7.581092
228.8821FCAILLIAU-LOPES Sonia39FRA1:51:027:56 7.571095
229.8634FLENGLET Pauline27FRA1:51:147:57 7.551102
230.9060FPROVO Marine28FRA1:51:167:57 7.551107
231.9382FPOUILLY Stéphanie37FRA1:51:217:58 7.541108
232.9135FVELLEMANS Hélène30BELLES ERPENTOIS1:51:287:58 7.541116
233.7038FFOURNIER Francoise33BELJCPMF FLV1:51:297:58 7.541117
234.9509FRUISSEAU Marine29FRA1:51:307:58 7.531119
235.9461FHUMBLET Aurelie36BEL1:51:327:58 7.531121
236.8453FDAMBRE Julie26FRA1:51:357:59 7.531122
237.9209FDELATTRE Caroline35FRA1:51:478:00 7.511125
238.8203FDEVIENNE Angélique37FRARUN AND BIKE BACHY1:51:498:00 7.511128
239.9695FHASTIR Héloïse33BEL1:51:528:00 7.511130
240.9165FNOËL Julie34BEL1:51:538:00 7.511131
241.9692FREULAND Caroline32BEL1:51:538:00 7.511132
242.9164FDEBROUX Julie37BEL1:51:538:00 7.511133
243.8915FFLIPO Celine34FRA1:51:598:00 7.501136
244.9106FLEROUGE Louise28FRA1:52:028:01 7.501139
245.9079FDESTEXHE Cindy39BELJOGGING ACADEMY1:52:238:02 7.481147
246.9306FSWENNEN Melissa38BEL1:52:238:02 7.481148
247.9339FANTOINE Nadine37BELJOGGING ACADEMIE1:52:238:02 7.471149
248.8244FNGUYEN Sigrid35FRARUN RUN RUN1:52:248:02 7.471153
249.8245FHUYGHE Alexandra33FRARUN RUN RUN1:52:248:02 7.471154
250.9844FCOUPET Céline37FRAASSO SIDEL1:52:258:02 7.471155
251.9954FFIRQUET Sabrina33FRAETHIAS RUNNING1:52:268:02 7.471157
252.9376FCOSTEUR Pauline35FRA1:52:328:03 7.471161
253.8820FFLOURET GOURLÉ Aude34FRA1:52:338:03 7.461163
254.8211FDAUDIER DE CASSINI Mailys27FRA1:52:378:03 7.461166
255.9025FHERMANT Fanny34FRAASUD JOGGING1:52:448:04 7.451169
256.9737FLECOMTE Sophie37FRAFOREST RUNNING 591:52:458:04 7.451170
257.8943FQUODBACH Lucile23BEL1:53:018:05 7.431176
258.9673FPACAULT Palmyre36FRA1:53:208:06 7.411183
259.9550FWILLAND Laurence37FRAJCMP1:53:308:07 7.401186
260.9150FTIHON Celine38BELLES GAULOIS1:53:378:07 7.391189
261.9571FVANDERLYNDEN Helene39FRARUN IN BOUSBECQUE1:53:428:08 7.391194
262.8813FCERVANTES Guadalupe39MEXJE COURS A INCOURT1:53:448:08 7.391198
263.9175FDUBOIS Julie26FRA1:54:128:10 7.361206
264.8631FRACHEL Struck27FRA1:54:128:10 7.361208
265.9105FGATHY Vinciane37BELRUN FOR FUN1:54:168:10 7.351209
266.9721FVILMUS Rosalyn38BELJE COURS POUR MA FORME SO1:54:228:11 7.351213
267.8750FDELORME Lucie28FRA1:54:238:11 7.341214
268.9456FSCHNEIDER Anne-Sophie28FRA1:54:238:11 7.341215
269.9693FLEFEBVRE Charlotte27FRA1:54:308:11 7.341219
270.8302FGUINET Laetitia39FRA1:54:308:11 7.341222
271.9021FDUJARDIN Marie29FRA1:54:358:12 7.331230
272.9750FDELACOURT Anne-Sophie39FRALICENCE FFA AS MARCK 19591:54:378:12 7.331231
273.8320FEVRARD Karine37FRA1:54:388:12 7.331232
274.9504FFOURDIN Clémence28FRA1:54:438:12 7.321236
275.9142FNOEL Angélique31FRA1:55:028:13 7.301242
276.9938FALGRAIN Camille26BEL1:55:058:14 7.301244
277.9632FDUFLOT Roxane26FRA1:55:118:14 7.291247
278.9739FCOLLIN Séverine37FRATRAILERS DES FAGNES1:55:128:14 7.291248
279.9386FDELPORTE Melanie30BELTRAILERS DES FAGNES1:55:138:14 7.291250
280.9969FMUSARDO Ruby30FRA1:55:138:14 7.291251
281.8974FDOLEANS Sophie38FRA1:55:218:15 7.281259
282.9063FRAMBUR Virginie28FRA1:55:268:15 7.281261
283.9578FSCARPA Anaïs34FRA1:55:268:15 7.281262
284.9299FBOCQUET Alexandra35FRA1:55:278:15 7.281263
285.9140FHERCOUET Aurélie39FRA1:55:278:15 7.281264
286.9163FSIMONIS Laurence31BEL1:55:288:15 7.281267
287.9477FCAMPHYN Marie Maud30FRA1:55:298:15 7.271268
288.9949FMAAS Elodie31FRA1:55:308:15 7.271269
289.9729FSOUMARE Emeline31FRA1:55:308:15 7.271270
290.9333FCHARLIER Emilie37BEL1:55:318:16 7.271271
291.9077FLEMAIRE Mélanie28FRA1:55:328:16 7.271272
292.8869FQUENEDEY Marion26FRA1:55:418:16 7.261275
293.9365FQUERCY Alice25FRA1:55:428:16 7.261276
294.8685FNAPOLI Anne-Laure31BEL1:55:488:17 7.251280
295.9148FANTOINE Alexia21FRA1:55:558:17 7.251288
296.8876FLALOY CATRY Valentine38FRA1:55:598:18 7.241296
297.8650FBRIDOUX Sophie36FRA1:56:138:19 7.231301
298.9774FPOTAR Laetitia35BELTEMPLEUVE1:56:218:19 7.221304
299.9600FKEIGNAERT Ludovic39FRA1:56:428:21 7.201314
300.9019FMENCHI Emmanuelle37FRA1:56:458:21 7.201320
301.9948FMOREAU Cynthia34BELLES AMIS JOGGEURS1:56:548:21 7.191323
302.8216FBERTEYN Julie37FRA1:57:038:22 7.181327
303.8466FLARDEUR Delphine39FRA1:57:138:23 7.171332
304.9607FCIESIELSKI Céline37FRA1:57:408:25 7.141342
305.9184FBOCQUILLON Maëlle22FRA1:57:418:25 7.141343
306.9731FDETHIER Jennifer33FRA1:57:468:25 7.131346
307.8975FPISTIDDA Alexandra32BELOCR RUN OR DIE1:57:488:25 7.131347
308.9356FDEVEL Véronique34BEL1:57:498:25 7.131348
309.9645FNOROY Sarah36FRA1:57:498:25 7.131349
310.9454FMARCHESE Laura29FRA1:57:558:26 7.121350
311.9929FNADIN Alexandra26BELLE HOUYOUX GESVES1:58:408:29 7.081375
312.10094FLHOMME Florence27FRADECATHLON1:58:518:30 7.071380
313.8106FANSELIN Caroline37FRA1:58:538:30 7.071385
314.9604FDERESE Marie35BEL1:58:558:30 7.061386
315.9802FANSELIN Isabelle34FRA1:58:578:30 7.061389
316.8865FROY Floriane28FRA1:59:008:30 7.061390
317.9026FFONTAINE Aurelie37FRA1:59:008:30 7.061391
318.10082FPOGU Isabelle33FRA1:59:108:31 7.051398
319.9543FBLONDEAU Maite31FRA1:59:138:31 7.051399
320.8671FLAUNOIS Claire30FRA1:59:138:31 7.051400
321.9259FDELOBELLE Margaux21FRA1:59:168:32 7.041402
322.8321FCOFFRE Sarah39FRA1:59:178:32 7.041403
323.9662FHER Emilie37FRA1:59:188:32 7.041404
324.9482FHER Pauline28FRA1:59:198:32 7.041405
325.9331FDEBRAY Emilie35FRA1:59:238:32 7.041408
326.8340FDEPELCHIN Anne-Cécile38BELTEMPLEUVE1:59:348:33 7.031411
327.9198FCATEZ Charlotte30FRA1:59:378:33 7.021413
328.8632FPREZ Juliette38FRALES SAINGHINOISES1:59:388:33 7.021414
329.8672FFORTIN Justine32FRA1:59:408:33 7.021415
330.8864FCOERTEN Valentine37BEL1:59:468:34 7.011422
331.8168FDU PELOUX Maelle22FRA1:59:488:34 7.011423
332.8658FMEKERKE Agathe22FRA1:59:578:35 7.001428
333.8656FMEKERKE Adele24FRA1:59:598:35 7.001429
334.8729FBOONAERT Mathilde34BELETM2:00:068:35 6.991436
335.8217FCANY Florence38FRA2:00:148:36 6.991442
336.9851FVERSAEVEL Anne36FRA2:00:168:36 6.981445
337.8478FFRAGNON Vanessa38FRA2:00:188:36 6.981449
338.9808FWIBAUX Cecile37FRAPHALEMPIN AC2:00:248:36 6.981452
339.9221FDECOURTRAY Ingrid37BELJCPMFFLV2:00:348:37 6.971455
340.9133FJACQUES Laeticia36BELJCPMF FLOREFFE2:00:548:39 6.951460
341.8791FRORIVE Julie37BEL2:00:548:39 6.951461
342.8675FHOLUBEC Tatiana36BEL2:00:548:39 6.951462
343.8997FDE ZUTTER Aurore33FRA2:00:568:39 6.951463
344.8989FLEPRESLE Betty35FRA2:00:578:39 6.951464
345.9664FNEZOSI ARNOULD Audrey34FRARUN IN METZ2:00:598:39 6.941467
346.8679FHOUBRONNE Caroline36FRA2:01:008:39 6.941468
347.9595FFILOU Servane39FRA2:01:098:40 6.931470
348.9622FDAL Marine28FRAAAAVA2:01:148:40 6.931471
349.8692FBASTIAENSEN Cindy36BEL2:01:238:41 6.921477
350.8912FANTOINE Fanny23FRA2:01:508:43 6.901483
351.8218FLESNE Anne Françoise39BEL2:02:038:44 6.881488
352.8712FBAUMANS Stéphanie37BEL2:02:238:45 6.861491
353.9395FHAVEGHEER Caroline25FRA2:02:258:45 6.861492
354.9064FJASKOLSKI Amandine32FRA2:02:308:45 6.861494
355.9065FCHEVALIER Gaëlle32FRA2:02:308:45 6.861495
356.9228FRULLENS Amélie27FRA2:02:348:46 6.851499
357.9452FANSIAU Julie30BEL2:02:388:46 6.851500
358.8265FCARLIER Tiphaine37FRA2:02:468:47 6.841501
359.9383FBEHIN Cécile34FRA2:02:478:47 6.841503
360.8190FDUSAUTOIR Claire26FRA2:03:108:48 6.821509
361.9457FPHILIPSON Nina24FRA2:03:358:50 6.801516
362.8713FFRIQUET Jessica36FRAPIPAIX2:03:428:51 6.791517
363.8319FBROOTCORNE Amandine36FRA2:04:288:54 6.751526
364.9840FLOGEZ Laetitia38FRA2:04:368:54 6.741529
365.9941FSERVAIS Lucie34BELTRAILERS DES FAGNES2:04:438:55 6.741530
366.9311FBONVOISIN Marie38FRA2:04:488:55 6.731531
367.9698FLAPIERRE Anne-Sophie39FRA2:04:488:55 6.731532
368.6263FCOLSON Anne-Catherine37FRA2:04:548:56 6.731534
369.9374FWITS Julie39BELÉCLATÉS PÉRUWELZ2:05:348:59 6.691541
370.8206FSIMON Emilie33FRATEAM TO2 BZH2:05:438:59 6.681544
371.9043FREYNTIENS Emilie30BEL2:06:159:02 6.651548
372.9041FPARMENTIER Catherine33FRA2:06:159:02 6.651549
373.9561FDERESE Noémie29BEL2:06:209:02 6.651552
374.9253FDECOBERT Maurine29FRA2:06:299:03 6.641553
375.9807FWIBAUX Emilie33FRA2:06:319:03 6.641555
376.9050FSEILLIER Fabienne38FRA2:06:479:04 6.631561
377.9512FGUISGAND Claire21FRA2:06:489:04 6.621562
378.9634FARNOULD Aurore34BELARCH2:06:549:04 6.621564
379.8719FGASQUET Emilie38FRA2:06:549:04 6.621565
380.8709FDAUDIER DE CASSINI Amicie25FRA2:07:069:05 6.611569
381.8198FDUDANS Davina39BEL2:07:349:07 6.591574
382.9932FSEDILLE Aurelie31FRA2:08:059:09 6.561576
383.8627FMARCHESE Graziella31FRA2:08:079:10 6.561578
384.9449FMARCHESE Julie23FRA2:08:399:12 6.531581
385.9237FHOMERIN Daisy37FRAECLATES PÉRUWELZ2:08:469:12 6.521582
386.9236FHONOREZ Aline37BELLES ECLATÉS2:08:469:12 6.521583
387.9354FVANHOUTTE Magali37BELPRFM2:09:159:14 6.501585
388.8767FDENIS Lucie37FRA2:09:289:15 6.491588
389.8932FDEVIAENE Amelie33BEL2:09:529:17 6.471592
390.8426FLENOIR Gaelle35BELJTRR COUVIN (BELGIQUE)2:11:589:26 6.371603
391.9777FLEFEBVRE Marie35BEL2:12:199:28 6.351605
392.8758FLEVET Elisabeth38FRA2:12:529:30 6.321608
393.9305FLEROY Flavie36FRA2:15:009:39 6.221614
394.9310FDELRUE Emilie36FRA2:15:009:39 6.221615
395.8877FDUMONT Celine39FRA2:15:229:41 6.211620
396.8825FFOULON Mélanie39BELECLATÉS DE PÉRUWELZ2:20:4610:04 5.971632
397.9151FBÉNÉDICTE De Chabot31FRALES GAULOIS2:21:4110:08 5.931634
398.9768FESPRIET Céline37BEL2:24:4510:21 5.801638
399.8455FWIEL Emeline28FRA2:25:2710:24 5.781639
400.9447FRYCKAERT Pauline26FRA2:25:4510:25 5.761640
401.8026FPASZKIEWICZ Cindy35FRA2:27:0710:31 5.711642
402.8625FLEYDIER Dorothee38FRA2:32:0410:52 5.521644
403.8697FTAILLEZ Audrey33FRA2:40:3611:29 5.231646
DSQ9756FKHADRI Awatife35FRA1:06:23
DNF9620FBARBIER Caroline35FRA
DNF9349FBOURET Audrey26FRA
DNF9812FBRAYE Vanessa30FRALYS CALAIS TRIATHLON
DNF9178FDELATTRE Céline33FRA
DNF8883FGRESSIER Vanessa28FRA
DNF8474FHOYEZ Fanny30FRA
DNF9849FHULOT Sophie34FRA
DNF9336FLINOTTE Marine22FRA
DNF9564FPIERRE-DUPLESSIX Dorothée37FRA
DNF8994FPILETTA Yann36FRA
DNF: abandon; DSQ: disqualifié; Vitesse en km/h
Page: [1]